{"data":{"norad_id":39472,"intl_designator":"2013-072L","name":"MCUBED-2","alt_names":[],"object_type":"PAYLOAD","status":"ACTIVE","operator":null,"country":"US","launch_date":"2013-12-06","launch_site_code":"AFWTR","launch_vehicle":null,"mission":null,"orbit_class":"UNKNOWN","rcs_meters":null,"size_class":null,"mass_kg":null,"dimensions":null,"purposes":[],"wikipedia_slug":null,"has_3d_model":false,"image_url":null,"decayed_at":null,"tle_current":{"epoch":"2026-05-24T12:14:10.462848Z","epoch_age_seconds":110548,"freshness":"FRESH","line1":"1 39472U 13072L   26144.50984332  .00282830  39236-4  12956-2 0  9994","line2":"2 39472 120.4728  63.6838 0044084  38.2941 322.1279 15.81863012113143","mean_motion":15.81863012,"eccentricity":0.0044084,"inclination_deg":120.4728,"raan_deg":63.6838,"arg_perigee_deg":38.2941,"mean_anomaly_deg":322.1279,"bstar":0.0012956,"rev_number":11314,"period_min":91.031902830787,"perigee_km":295.62145709447,"apogee_km":354.7231947593,"semimajor_km":6703.3093259269,"source":"CELESTRAK","updated_at":"2026-05-25T13:37:55.405982Z"}}}